COSMOS 411

Satellite information

Favourite Embed

Satellite Type and Status

PAYLOADIN ORBIT

Key statistics

Satellite COSMOS 411 at a glance.

Uptime

19785

Days in orbit

Revolutions

≈ 12.6

Per day

Orbit

LEO

Low Earth Orbit

Inclination

74.0

Latest

Satellite identification and parameters

Extended collection of information and parameters for COSMOS 411.

Object identification

Identified? True

Debris? False

Object name: COSMOS 411

International designator: 1971-041A

Object number (NORAD): 5210

Object ID (CCSDS): 5210

Country: COMMONWEALTH OF INDEPENDENT STATES (CIS)

Current information (Y/N): Y

RCS size: MEDIUM

Orbital parameters

Period: 113.835 minutes

Inclination: 74.0155 deg

SMA: 7780.549 km

Apoapsis: 1489.508 km

Periapsis: 1315.321 km

RAAN: 35.1216 deg

Eccentricy: 0.0111938

Argument of periapsis: 160.9383 deg

Mean anomaly: 255.8043 deg

Mean motion: 12.64990779 rev/day

Mean motion (dot): 0.0 rev/day2

B* drag term: 0.000085504 1/REarth

Two-line elements (TLE)

Creation date: July 6, 2025, 6:05 p.m.

Reference frame: TEME

Reference center: EARTH

Epoch: July 6, 2025, 2:30 p.m. UTC

TLE line 0: 0 COSMOS 411

TLE line 1: 1 05210U 71041A 25187.60445053 .00000000 00000-0 85504-4 0 9997

TLE line 2: 2 05210 74.0155 35.1216 0111938 160.9383 255.8043 12.64990779501167

Live tracking on map

Real-time ground track for satellite COSMOS 411.

In-orbit conjunctions

A list of the most updated potential collisions computed for object COSMOS 411.

Target Orbit TCA Probability of collision Miss distance Type
COSMOS 2251 DEB LEO 2025-05-19 09:23:13 0.0002320933 205.0 (m) DEBRIS
COSMOS 2251 DEB LEO 2024-07-04 04:46:35 0.000523368 195.0 (m) DEBRIS

Associated space launch

Military communications satellites

COSMOS 411 was lifted into orbit during the mission ‘Kosmos-3M | Strela-1M 9-16’, on board a Kosmos-3M space rocket.

The launch took place on May 7, 1971, 2:20 p.m. from 132/1 (132L).

For more information about the launch, click the button.

Launch to space Kosmos-3M | Strela-1M 9-16
Kosmos-3M | Strela-1M 9-16

Agency: N/A

Status: Launch Successful

Launch date: May 7, 1971, 2:20 p.m. UTC

Rocket: Kosmos-3M

Launch pad: 132/1 (132L)

Location: Plesetsk Cosmodrome, Russian Federation

...

Latest news about this satellite

There are no fresh news available about this satellite. Check back as we update our databases every day.


Newsletter sign-up

Weekly statistics, charts and insights to help you stay on top of the space industry.